| time (UTC) | temp F | wind direction | speed knots | gust knots | rain 1hr in | rain 24hr in | rain mn in | humidity % | barometer mb |
| 20260505214008 | 79 | 225 | 1.7 | 6.1 | 0.00 | 0.00 | 0.00 | 36 | 1013.6 |
| 20260505213508 | 79 | 236 | 0.9 | 6.1 | 0.00 | 0.00 | 0.00 | 36 | 1013.7 |
| 20260505213022 | 79 | 295 | 1.7 | 7.0 | 0.00 | 0.00 | 0.00 | 35 | 1013.7 |
| 20260505212515 | 79 | 147 | 3.5 | 7.0 | 0.00 | 0.00 | 0.00 | 35 | 1013.7 |
| 20260505212014 | 79 | 288 | 0.9 | 5.2 | 0.00 | 0.00 | 0.00 | 35 | 1013.8 |
| 20260505211526 | 79 | 215 | 1.7 | 5.2 | 0.00 | 0.00 | 0.00 | 35 | 1013.9 |
| 20260505211008 | 79 | 203 | 1.7 | 6.1 | 0.00 | 0.00 | 0.00 | 35 | 1013.8 |
| 20260505210512 | 79 | 152 | 1.7 | 7.0 | 0.00 | 0.00 | 0.00 | 36 | 1013.9 |
| 20260505210028 | 79 | 219 | 0.9 | 7.0 | 0.00 | 0.00 | 0.00 | 36 | 1014.1 |
| 20260505205508 | 78 | 133 | 1.7 | 4.3 | 0.00 | 0.00 | 0.00 | 37 | 1014.1 |
| 20260505205015 | 78 | 148 | 0.9 | 4.3 | 0.00 | 0.00 | 0.00 | 35 | 1014.1 |
| 20260505204513 | 79 | 262 | 0.9 | 5.2 | 0.00 | 0.00 | 0.00 | 35 | 1014.1 |
| 20260505204012 | 79 | 211 | 1.7 | 4.3 | 0.00 | 0.00 | 0.00 | 37 | 1014.3 |
| 20260505203507 | 78 | 34 | 0.9 | 6.1 | 0.00 | 0.00 | 0.00 | 38 | 1014.3 |
| 20260505203036 | 78 | 241 | 0.9 | 6.1 | 0.00 | 0.00 | 0.00 | 37 | 1014.4 |
| 20260505202509 | 79 | 83 | 0.9 | 6.1 | 0.00 | 0.00 | 0.00 | 36 | 1014.2 |
| 20260505202013 | 79 | 273 | 1.7 | 6.1 | 0.00 | 0.00 | 0.00 | 36 | 1014.3 |
| 20260505201529 | 79 | 320 | 1.7 | 6.1 | 0.00 | 0.00 | 0.00 | 37 | 1014.3 |
| 20260505201009 | 79 | 226 | 0.9 | 7.8 | 0.00 | 0.00 | 0.00 | 37 | 1014.4 |
| 20260505200514 | 79 | 209 | 1.7 | 7.8 | 0.00 | 0.00 | 0.00 | 35 | 1014.5 |
| 20260505200026 | 79 | 329 | 1.7 | 4.3 | 0.00 | 0.00 | 0.00 | 36 | 1014.7 |
| 20260505195513 | 79 | 53 | 1.7 | 7.8 | 0.00 | 0.00 | 0.00 | 35 | 1014.6 |
| 20260505195012 | 79 | 145 | 1.7 | 7.8 | 0.00 | 0.00 | 0.00 | 36 | 1014.9 |
| 20260505194536 | 79 | 174 | 2.6 | 7.8 | 0.00 | 0.00 | 0.00 | 34 | 1015.0 |
| 20260505194011 | 79 | 237 | 1.7 | 7.0 | 0.00 | 0.00 | 0.00 | 35 | 1015.0 |
| 20260505193506 | 79 | 348 | 0.9 | 6.1 | 0.00 | 0.00 | 0.00 | 36 | 1015.1 |
| 20260505193016 | 79 | 213 | 1.7 | 7.0 | 0.00 | 0.00 | 0.00 | 35 | 1015.2 |
| 20260505192509 | 79 | 167 | 2.6 | 7.8 | 0.00 | 0.00 | 0.00 | 37 | 1015.2 |
| 20260505192010 | 78 | 254 | 1.7 | 7.8 | 0.00 | 0.00 | 0.00 | 36 | 1015.3 |
| 20260505191524 | 78 | 178 | 1.7 | 7.8 | 0.00 | 0.00 | 0.00 | 35 | 1015.3 |
| 20260505191011 | 78 | 350 | 1.7 | 10.4 | 0.00 | 0.00 | 0.00 | 36 | 1015.4 |
| 20260505190510 | 78 | 332 | 3.5 | 10.4 | 0.00 | 0.00 | 0.00 | 36 | 1015.3 |
| 20260505190025 | 78 | 265 | 0.9 | 5.2 | 0.00 | 0.00 | 0.00 | 37 | 1015.3 |
| 20260505185510 | 78 | 222 | 1.7 | 6.1 | 0.00 | 0.00 | 0.00 | 34 | 1015.5 |
| 20260505185015 | 78 | 227 | 2.6 | 6.1 | 0.00 | 0.00 | 0.00 | 35 | 1015.6 |
| 20260505184529 | 78 | 72 | 0.9 | 4.3 | 0.00 | 0.00 | 0.00 | 37 | 1015.5 |
| 20260505184011 | 78 | 165 | 1.7 | 4.3 | 0.00 | 0.00 | 0.00 | 35 | 1015.7 |
| 20260505183512 | 78 | 231 | 0.9 | 4.3 | 0.00 | 0.00 | 0.00 | 36 | 1015.7 |
| 20260505183027 | 78 | 100 | 1.7 | 6.1 | 0.00 | 0.00 | 0.00 | 33 | 1015.7 |
| 20260505182514 | 78 | 248 | 1.7 | 9.6 | 0.00 | 0.00 | 0.00 | 36 | 1015.8 |
| 20260505182013 | 77 | 239 | 2.6 | 9.6 | 0.00 | 0.00 | 0.00 | 36 | 1015.9 |
| 20260505181521 | 78 | 142 | 3.5 | 7.8 | 0.00 | 0.00 | 0.00 | 35 | 1015.9 |
| 20260505181003 | 78 | 264 | 1.7 | 7.0 | 0.00 | 0.00 | 0.00 | 37 | 1016.1 |
| 20260505180506 | 78 | 225 | 2.6 | 7.0 | 0.00 | 0.00 | 0.00 | 36 | 1016.3 |
| 20260505180005 | 78 | 49 | 1.7 | 3.5 | 0.00 | 0.00 | 0.00 | 36 | 1016.4 |
| 20260505175505 | 78 | 220 | 0.9 | 4.3 | 0.00 | 0.00 | 0.00 | 37 | 1016.6 |
| 20260505175003 | 77 | 215 | 1.7 | 5.2 | 0.00 | 0.00 | 0.00 | 36 | 1016.4 |
| 20260505174548 | 77 | 226 | 1.7 | 5.2 | 0.00 | 0.00 | 0.00 | 36 | 1016.5 |
| 20260505174006 | 77 | 249 | 1.7 | 5.2 | 0.00 | 0.00 | 0.00 | 36 | 1016.4 |
| 20260505173506 | 77 | 88 | 2.6 | 6.1 | 0.00 | 0.00 | 0.00 | 37 | 1016.6 |
| 20260505173020 | 77 | 345 | 1.7 | 9.6 | 0.00 | 0.00 | 0.00 | 40 | 1016.6 |
| 20260505172506 | 77 | 89 | 1.7 | 9.6 | 0.00 | 0.00 | 0.00 | 37 | 1016.5 |
| 20260505172012 | 77 | 141 | 1.7 | 7.0 | 0.00 | 0.00 | 0.00 | 38 | 1016.5 |
| 20260505171524 | 77 | 269 | 1.7 | 6.1 | 0.00 | 0.00 | 0.00 | 38 | 1016.4 |
| 20260505171008 | 76 | 327 | 2.6 | 6.1 | 0.00 | 0.00 | 0.00 | 41 | 1016.4 |
| 20260505170510 | 76 | 92 | 1.7 | 7.0 | 0.00 | 0.00 | 0.00 | 39 | 1016.3 |
| 20260505170005 | 76 | 205 | 1.7 | 7.0 | 0.00 | 0.00 | 0.00 | 39 | 1016.3 |
| 20260505165504 | 75 | 348 | 1.7 | 7.8 | 0.00 | 0.00 | 0.00 | 37 | 1016.4 |
| 20260505165006 | 75 | 215 | 1.7 | 7.8 | 0.00 | 0.00 | 0.00 | 39 | 1016.5 |
| 20260505164508 | 75 | 91 | 0.9 | 9.6 | 0.00 | 0.00 | 0.00 | 40 | 1016.5 |
| 20260505164006 | 75 | 222 | 2.6 | 9.6 | 0.00 | 0.00 | 0.00 | 43 | 1016.7 |
| 20260505163506 | 75 | 346 | 1.7 | 7.8 | 0.00 | 0.00 | 0.00 | 41 | 1016.7 |
| 20260505163019 | 75 | 162 | 2.6 | 7.8 | 0.00 | 0.00 | 0.00 | 41 | 1016.7 |
| 20260505162507 | 75 | 165 | 1.7 | 6.1 | 0.00 | 0.00 | 0.00 | 43 | 1016.7 |
| 20260505162008 | 75 | 333 | 0.9 | 4.3 | 0.00 | 0.00 | 0.00 | 42 | 1016.6 |
| 20260505161516 | 75 | 203 | 0.9 | 3.5 | 0.00 | 0.00 | 0.00 | 44 | 1016.8 |
| 20260505161007 | 75 | 263 | 0.9 | 4.3 | 0.00 | 0.00 | 0.00 | 44 | 1016.8 |
| 20260505160508 | 75 | 251 | 1.7 | 5.2 | 0.00 | 0.00 | 0.00 | 43 | 1017.1 |
| 20260505153029 | 73 | 188 | 1.7 | 4.3 | 0.00 | 0.00 | 0.00 | 48 | 1017.2 |
| 20260505152506 | 72 | 244 | 0.9 | 4.3 | 0.00 | 0.00 | 0.00 | 52 | 1017.3 |
| 20260505152010 | 72 | 171 | 0.9 | 5.2 | 0.00 | 0.00 | 0.00 | 51 | 1017.5 |
| 20260505151516 | 72 | 232 | 0.9 | 5.2 | 0.00 | 0.00 | 0.00 | 54 | 1017.6 |
| 20260505151009 | 71 | 292 | 0.9 | 4.3 | 0.00 | 0.00 | 0.00 | 54 | 1017.5 |
| 20260505150513 | 71 | 273 | 1.7 | 5.2 | 0.00 | 0.00 | 0.00 | 53 | 1017.5 |
| 20260505140510 | 67 | 339 | 0.9 | 3.5 | 0.00 | 0.00 | 0.00 | 60 | 1017.1 |
| 20260505125012 | 62 | 246 | 0.9 | 2.6 | 0.00 | 0.00 | 0.00 | 71 | 1016.6 |
| 20260505124522 | 62 | 334 | 0.9 | 2.6 | 0.00 | 0.00 | 0.00 | 71 | 1016.6 |
| 20260505124011 | 62 | 286 | 0.9 | 5.2 | 0.00 | 0.00 | 0.00 | 72 | 1016.5 |
| 20260505123510 | 61 | 326 | 0.9 | 5.2 | 0.00 | 0.00 | 0.00 | 73 | 1016.6 |
| 20260505123026 | 61 | 225 | 1.7 | 5.2 | 0.00 | 0.00 | 0.00 | 73 | 1016.5 |
| 20260505122510 | 60 | 234 | 0.9 | 3.5 | 0.00 | 0.00 | 0.00 | 74 | 1016.6 |
| 20260505122010 | 60 | 247 | 0.9 | 3.5 | 0.00 | 0.00 | 0.00 | 74 | 1016.5 |
| 20260505121510 | 59 | 273 | 0.9 | 3.5 | 0.00 | 0.00 | 0.00 | 75 | 1016.5 |
| 20260505121007 | 59 | 293 | 0.0 | 6.1 | 0.00 | 0.00 | 0.00 | 75 | 1016.5 |
| 20260505120506 | 58 | 336 | 1.7 | 6.1 | 0.00 | 0.00 | 0.00 | 76 | 1016.3 |
| 20260505120017 | 58 | 293 | 0.9 | 1.7 | 0.00 | 0.00 | 0.00 | 76 | 1016.3 |
| 20260505115506 | 57 | 350 | 0.9 | 2.6 | 0.00 | 0.00 | 0.00 | 77 | 1016.2 |
| 20260505115007 | 57 | 309 | 0.9 | 2.6 | 0.00 | 0.00 | 0.00 | 77 | 1016.2 |
| 20260505114518 | 57 | 299 | 0.9 | 2.6 | 0.00 | 0.00 | 0.00 | 77 | 1016.1 |
| 20260505114010 | 57 | 9 | 0.0 | 1.7 | 0.00 | 0.00 | 0.00 | 78 | 1016.2 |
| 20260505113510 | 56 | 320 | 0.0 | 2.6 | 0.00 | 0.00 | 0.00 | 78 | 1016.2 |
| 20260505113026 | 56 | 327 | 0.0 | 2.6 | 0.00 | 0.00 | 0.00 | 79 | 1016.2 |
| 20260505112512 | 56 | 338 | 0.0 | 3.5 | 0.00 | 0.00 | 0.00 | 79 | 1016.3 |
| 20260505112010 | 55 | 300 | 0.9 | 3.5 | 0.00 | 0.00 | 0.00 | 79 | 1016.3 |
| 20260505111526 | 55 | 11 | 0.0 | 1.7 | 0.00 | 0.00 | 0.00 | 80 | 1016.4 |
| 20260505111011 | 55 | 313 | 0.0 | 2.6 | 0.00 | 0.00 | 0.00 | 80 | 1016.3 |
| 20260505110504 | 55 | 339 | 0.9 | 2.6 | 0.00 | 0.00 | 0.00 | 81 | 1016.3 |
| 20260505102013 | 54 | 181 | 0.0 | 1.7 | 0.00 | 0.00 | 0.00 | 80 | 1016.1 |
| 20260505101534 | 54 | 295 | 0.0 | 0.9 | 0.00 | 0.00 | 0.00 | 81 | 1016.1 |
| 20260505101010 | 53 | 103 | 0.0 | 0.9 | 0.00 | 0.00 | 0.00 | 81 | 1016.1 |
| 20260505100512 | 53 | 64 | 0.0 | 0.0 | 0.00 | 0.00 | 0.00 | 81 | 1016.1 |
| 20260505100028 | 53 | 134 | 0.0 | 0.0 | 0.00 | 0.00 | 0.00 | 81 | 1016.0 |
| 20260505095508 | 53 | 125 | 0.0 | 0.0 | 0.00 | 0.00 | 0.00 | 82 | 1016.1 |
| 20260505095008 | 52 | 123 | 0.0 | 0.0 | 0.00 | 0.00 | 0.00 | 81 | 1016.0 |
| 20260505094517 | 52 | 165 | 0.0 | 0.0 | 0.00 | 0.00 | 0.00 | 81 | 1016.0 |
| 20260505094007 | 52 | 166 | 0.0 | 0.0 | 0.00 | 0.00 | 0.00 | 81 | 1015.9 |
| 20260505093506 | 52 | 166 | 0.0 | 0.0 | 0.00 | 0.00 | 0.00 | 81 | 1016.0 |
| 20260505093033 | 52 | 166 | 0.0 | 0.0 | 0.00 | 0.00 | 0.00 | 81 | 1016.0 |
| 20260505092509 | 52 | 166 | 0.0 | 0.0 | 0.00 | 0.00 | 0.00 | 80 | 1016.0 |
| 20260505092012 | 52 | 166 | 0.0 | 0.0 | 0.00 | 0.00 | 0.00 | 80 | 1016.0 |
| 20260505091504 | 52 | 166 | 0.0 | 0.0 | 0.00 | 0.00 | 0.00 | 79 | 1016.0 |
| 20260505091007 | 52 | 166 | 0.0 | 0.0 | 0.00 | 0.00 | 0.00 | 79 | 1015.9 |
| 20260505090505 | 52 | 166 | 0.0 | 0.0 | 0.00 | 0.00 | 0.00 | 78 | 1015.9 |
| 20260505090010 | 52 | 166 | 0.0 | 0.0 | 0.00 | 0.00 | 0.00 | 77 | 1015.9 |
| 20260505085508 | 53 | 166 | 0.0 | 0.0 | 0.00 | 0.00 | 0.00 | 77 | 1015.8 |
| 20260505085005 | 53 | 166 | 0.0 | 0.0 | 0.00 | 0.00 | 0.00 | 77 | 1015.9 |
| 20260505084513 | 53 | 166 | 0.0 | 0.0 | 0.00 | 0.00 | 0.00 | 76 | 1015.8 |
| 20260505084008 | 53 | 166 | 0.0 | 0.0 | 0.00 | 0.00 | 0.00 | 75 | 1015.7 |
| 20260505083510 | 53 | 166 | 0.0 | 0.0 | 0.00 | 0.00 | 0.00 | 75 | 1015.7 |
| 20260505083025 | 53 | 166 | 0.0 | 0.0 | 0.00 | 0.00 | 0.00 | 74 | 1015.6 |
| 20260505082504 | 54 | 166 | 0.0 | 0.0 | 0.00 | 0.00 | 0.00 | 74 | 1015.6 |
| 20260505082004 | 54 | 166 | 0.0 | 0.0 | 0.00 | 0.00 | 0.00 | 73 | 1015.7 |
| 20260505081507 | 54 | 166 | 0.0 | 0.0 | 0.00 | 0.00 | 0.00 | 73 | 1015.6 |
| 20260505081004 | 54 | 166 | 0.0 | 0.0 | 0.00 | 0.00 | 0.00 | 73 | 1015.5 |
| 20260505080504 | 54 | 166 | 0.0 | 0.0 | 0.00 | 0.00 | 0.00 | 72 | 1015.4 |
| 20260505080006 | 54 | 166 | 0.0 | 0.0 | 0.00 | 0.00 | 0.00 | 72 | 1015.4 |
| 20260505075507 | 55 | 166 | 0.0 | 0.0 | 0.00 | 0.00 | 0.00 | 71 | 1015.4 |
| 20260505075004 | 55 | 163 | 0.0 | 0.0 | 0.00 | 0.00 | 0.00 | 70 | 1015.4 |
| 20260505074511 | 55 | 164 | 0.0 | 0.0 | 0.00 | 0.00 | 0.00 | 70 | 1015.4 |
| 20260505074005 | 55 | 164 | 0.0 | 0.0 | 0.00 | 0.00 | 0.00 | 70 | 1015.3 |
| 20260505073508 | 55 | 164 | 0.0 | 0.0 | 0.00 | 0.00 | 0.00 | 69 | 1015.3 |
| 20260505073016 | 55 | 164 | 0.0 | 0.0 | 0.00 | 0.00 | 0.00 | 69 | 1015.3 |
| 20260505072512 | 55 | 164 | 0.0 | 0.0 | 0.00 | 0.00 | 0.00 | 68 | 1015.3 |
| 20260505072007 | 55 | 164 | 0.0 | 0.0 | 0.00 | 0.00 | 0.00 | 68 | 1015.4 |
| 20260505071524 | 55 | 164 | 0.0 | 0.0 | 0.00 | 0.00 | 0.00 | 68 | 1015.4 |
| 20260505071004 | 55 | 164 | 0.0 | 0.0 | 0.00 | 0.00 | 0.00 | 67 | 1015.4 |
| 20260505070506 | 56 | 164 | 0.0 | 0.0 | 0.00 | 0.00 | 0.00 | 67 | 1015.4 |
| 20260505070006 | 56 | 164 | 0.0 | 0.0 | 0.00 | 0.00 | 0.00 | 66 | 1015.4 |
| 20260505065505 | 56 | 164 | 0.0 | 0.0 | 0.00 | 0.00 | 0.00 | 66 | 1015.4 |
| 20260505065003 | 56 | 164 | 0.0 | 0.0 | 0.00 | 0.00 | 0.00 | 65 | 1015.3 |
| 20260505064508 | 56 | 164 | 0.0 | 0.0 | 0.00 | 0.00 | 0.00 | 65 | 1015.3 |
| 20260505064006 | 56 | 164 | 0.0 | 0.0 | 0.00 | 0.00 | 0.00 | 64 | 1015.3 |
| 20260505063504 | 57 | 164 | 0.0 | 0.0 | 0.00 | 0.00 | 0.00 | 64 | 1015.3 |
| 20260505063016 | 57 | 164 | 0.0 | 0.0 | 0.00 | 0.00 | 0.00 | 64 | 1015.2 |
| 20260505062512 | 57 | 164 | 0.0 | 0.0 | 0.00 | 0.00 | 0.00 | 63 | 1015.3 |
| 20260505062009 | 57 | 164 | 0.0 | 0.0 | 0.00 | 0.00 | 0.00 | 63 | 1015.4 |
| 20260505061519 | 58 | 164 | 0.0 | 1.7 | 0.00 | 0.00 | 0.00 | 63 | 1015.3 |
| 20260505061010 | 58 | 161 | 0.0 | 1.7 | 0.00 | 0.00 | 0.00 | 62 | 1015.2 |
| 20260505060511 | 58 | 261 | 0.0 | 1.7 | 0.00 | 0.00 | 0.00 | 62 | 1015.2 |
| 20260505060004 | 58 | 151 | 0.0 | 1.7 | 0.00 | 0.00 | 0.00 | 62 | 1015.2 |
| 20260505055503 | 58 | 224 | 0.0 | 0.0 | 0.00 | 0.00 | 0.00 | 62 | 1015.0 |
| 20260505055005 | 58 | 224 | 0.0 | 0.0 | 0.00 | 0.00 | 0.00 | 62 | 1015.1 |
| 20260505054508 | 58 | 224 | 0.0 | 1.7 | 0.00 | 0.00 | 0.00 | 62 | 1015.2 |
| 20260505054010 | 58 | 224 | 0.0 | 1.7 | 0.00 | 0.00 | 0.00 | 61 | 1015.2 |
| 20260505053505 | 58 | 224 | 0.0 | 0.0 | 0.00 | 0.00 | 0.00 | 61 | 1015.2 |
| 20260505053015 | 58 | 224 | 0.0 | 0.0 | 0.00 | 0.00 | 0.00 | 61 | 1015.2 |
| 20260505052507 | 58 | 224 | 0.0 | 0.0 | 0.00 | 0.00 | 0.00 | 61 | 1015.4 |
| 20260505052012 | 59 | 224 | 0.0 | 0.0 | 0.00 | 0.00 | 0.00 | 61 | 1015.4 |
| 20260505051531 | 59 | 224 | 0.0 | 0.0 | 0.00 | 0.00 | 0.00 | 60 | 1015.5 |
| 20260505051011 | 59 | 224 | 0.0 | 0.0 | 0.00 | 0.00 | 0.00 | 60 | 1015.5 |
| 20260505050511 | 59 | 224 | 0.0 | 0.0 | 0.00 | 0.00 | 0.00 | 59 | 1015.5 |
| 20260505041514 | 61 | 224 | 0.0 | 0.0 | 0.00 | 0.00 | 0.00 | 56 | 1015.4 |
| 20260505041007 | 61 | 224 | 0.0 | 0.0 | 0.00 | 0.00 | 0.00 | 56 | 1015.4 |
| 20260505040507 | 62 | 225 | 0.0 | 0.0 | 0.00 | 0.00 | 0.00 | 55 | 1015.5 |
| 20260505040025 | 62 | 225 | 0.0 | 0.0 | 0.00 | 0.00 | 0.00 | 55 | 1015.6 |
| 20260505035510 | 62 | 225 | 0.0 | 0.0 | 0.00 | 0.00 | 0.00 | 55 | 1015.6 |
| 20260505035007 | 62 | 225 | 0.0 | 0.0 | 0.00 | 0.00 | 0.00 | 56 | 1015.6 |
| 20260505034530 | 62 | 225 | 0.0 | 0.0 | 0.00 | 0.00 | 0.00 | 56 | 1015.6 |
| 20260505034007 | 62 | 225 | 0.0 | 0.0 | 0.00 | 0.00 | 0.00 | 56 | 1015.6 |
| 20260505033505 | 62 | 225 | 0.0 | 0.0 | 0.00 | 0.00 | 0.00 | 55 | 1015.6 |
| 20260505033009 | 62 | 225 | 0.0 | 0.0 | 0.00 | 0.00 | 0.00 | 55 | 1015.6 |
| 20260505032504 | 62 | 225 | 0.0 | 0.0 | 0.00 | 0.00 | 0.00 | 55 | 1015.7 |
| 20260505032007 | 63 | 225 | 0.0 | 0.0 | 0.00 | 0.00 | 0.00 | 54 | 1015.7 |
| 20260505031516 | 63 | 225 | 0.0 | 0.0 | 0.00 | 0.00 | 0.00 | 54 | 1015.6 |
| 20260505031007 | 63 | 225 | 0.0 | 0.0 | 0.00 | 0.00 | 0.00 | 54 | 1015.6 |
| 20260505030508 | 63 | 225 | 0.0 | 0.0 | 0.00 | 0.00 | 0.00 | 54 | 1015.6 |
| 20260505030020 | 63 | 225 | 0.0 | 0.0 | 0.00 | 0.00 | 0.00 | 54 | 1015.7 |
| 20260505025511 | 63 | 225 | 0.0 | 0.0 | 0.00 | 0.00 | 0.00 | 54 | 1015.7 |
| 20260505025011 | 63 | 225 | 0.0 | 0.0 | 0.00 | 0.00 | 0.00 | 54 | 1015.7 |
| 20260505024525 | 63 | 249 | 0.0 | 1.7 | 0.00 | 0.00 | 0.00 | 54 | 1015.6 |
| 20260505024009 | 63 | 249 | 0.0 | 1.7 | 0.00 | 0.00 | 0.00 | 54 | 1015.5 |
| 20260505023508 | 63 | 249 | 0.0 | 1.7 | 0.00 | 0.00 | 0.00 | 54 | 1015.6 |
| 20260505023027 | 63 | 195 | 0.0 | 0.0 | 0.00 | 0.00 | 0.00 | 54 | 1015.5 |
| 20260505022506 | 63 | 195 | 0.0 | 0.0 | 0.00 | 0.00 | 0.00 | 54 | 1015.5 |
| 20260505022005 | 62 | 195 | 0.0 | 0.0 | 0.00 | 0.00 | 0.00 | 54 | 1015.4 |
| 20260505021512 | 62 | 195 | 0.0 | 0.0 | 0.00 | 0.00 | 0.00 | 54 | 1015.4 |
| 20260505021005 | 62 | 195 | 0.0 | 0.0 | 0.00 | 0.00 | 0.00 | 54 | 1015.3 |
| 20260505020507 | 62 | 195 | 0.0 | 0.0 | 0.00 | 0.00 | 0.00 | 54 | 1015.3 |
| 20260505020016 | 62 | 195 | 0.0 | 0.0 | 0.00 | 0.00 | 0.00 | 54 | 1015.3 |
| 20260505015512 | 63 | 195 | 0.0 | 0.0 | 0.00 | 0.00 | 0.00 | 53 | 1015.3 |
| 20260505015012 | 63 | 195 | 0.0 | 0.0 | 0.00 | 0.00 | 0.00 | 53 | 1015.3 |
| 20260505014525 | 63 | 195 | 0.0 | 0.0 | 0.00 | 0.00 | 0.00 | 52 | 1015.1 |
| 20260505014012 | 63 | 195 | 0.0 | 0.0 | 0.00 | 0.00 | 0.00 | 51 | 1015.1 |
| 20260505013508 | 64 | 195 | 0.0 | 0.9 | 0.00 | 0.00 | 0.00 | 52 | 1015.1 |
| 20260505013026 | 64 | 195 | 0.0 | 0.9 | 0.00 | 0.00 | 0.00 | 51 | 1015.1 |
| 20260505012511 | 64 | 195 | 0.0 | 1.7 | 0.00 | 0.00 | 0.00 | 50 | 1014.9 |
| 20260505012009 | 64 | 195 | 0.0 | 1.7 | 0.00 | 0.00 | 0.00 | 49 | 1014.9 |
| 20260505011508 | 65 | 195 | 0.0 | 1.7 | 0.00 | 0.00 | 0.00 | 48 | 1014.9 |
| 20260505011005 | 65 | 195 | 0.0 | 1.7 | 0.00 | 0.00 | 0.00 | 47 | 1014.8 |
| 20260505010508 | 65 | 195 | 0.0 | 1.7 | 0.00 | 0.00 | 0.00 | 47 | 1014.9 |
| 20260505010019 | 66 | 195 | 0.0 | 1.7 | 0.00 | 0.00 | 0.00 | 46 | 1014.8 |
| 20260505005509 | 66 | 195 | 0.0 | 1.7 | 0.00 | 0.00 | 0.00 | 45 | 1014.9 |
| 20260505005008 | 67 | 195 | 0.0 | 1.7 | 0.00 | 0.00 | 0.00 | 44 | 1014.9 |
| 20260505004524 | 67 | 195 | 0.0 | 1.7 | 0.00 | 0.00 | 0.00 | 44 | 1014.7 |
| 20260505004008 | 68 | 195 | 0.0 | 1.7 | 0.00 | 0.00 | 0.00 | 44 | 1014.6 |
| 20260505003515 | 68 | 195 | 0.0 | 1.7 | 0.00 | 0.00 | 0.00 | 43 | 1014.6 |
| 20260505003024 | 69 | 169 | 0.0 | 1.7 | 0.00 | 0.00 | 0.00 | 41 | 1014.5 |
| 20260505002509 | 69 | 169 | 0.0 | 0.0 | 0.00 | 0.00 | 0.00 | 41 | 1014.6 |
| 20260505002011 | 69 | 169 | 0.0 | 1.7 | 0.00 | 0.00 | 0.00 | 40 | 1014.6 |
| 20260505001508 | 70 | 169 | 0.0 | 1.7 | 0.00 | 0.00 | 0.00 | 40 | 1014.6 |
| 20260505001003 | 70 | 169 | 0.0 | 1.7 | 0.00 | 0.00 | 0.00 | 39 | 1014.5 |
| 20260505000504 | 71 | 169 | 0.0 | 1.7 | 0.00 | 0.00 | 0.00 | 38 | 1014.5 |
| 20260505000014 | 71 | 169 | 0.0 | 1.7 | 0.00 | 0.00 | 0.00 | 38 | 1014.5 |
| 20260504235508 | 71 | 169 | 0.0 | 2.6 | 0.00 | 0.00 | 0.00 | 37 | 1014.5 |
| 20260504235007 | 71 | 169 | 0.0 | 2.6 | 0.00 | 0.00 | 0.00 | 37 | 1014.3 |
| 20260504234522 | 72 | 228 | 0.0 | 1.7 | 0.00 | 0.00 | 0.00 | 37 | 1014.3 |
| 20260504234007 | 72 | 217 | 0.0 | 4.3 | 0.00 | 0.00 | 0.00 | 37 | 1014.3 |
| 20260504233508 | 72 | 217 | 0.0 | 4.3 | 0.00 | 0.00 | 0.00 | 38 | 1014.2 |
| 20260504233024 | 73 | 246 | 0.9 | 2.6 | 0.00 | 0.00 | 0.00 | 37 | 1014.2 |
| 20260504232509 | 73 | 223 | 0.9 | 3.5 | 0.00 | 0.00 | 0.00 | 36 | 1014.2 |
| 20260504232003 | 73 | 217 | 0.9 | 4.3 | 0.00 | 0.00 | 0.00 | 37 | 1014.2 |
| 20260504231504 | 74 | 229 | 0.9 | 4.3 | 0.00 | 0.00 | 0.00 | 36 | 1014.1 |
| 20260504231005 | 74 | 153 | 1.7 | 2.6 | 0.00 | 0.00 | 0.00 | 35 | 1014.1 |
| 20260504230504 | 74 | 199 | 0.9 | 6.1 | 0.00 | 0.00 | 0.00 | 34 | 1014.1 |
| 20260504230011 | 74 | 171 | 1.7 | 6.1 | 0.00 | 0.00 | 0.00 | 34 | 1014.1 |
| 20260504225509 | 75 | 207 | 0.9 | 7.0 | 0.00 | 0.00 | 0.00 | 33 | 1014.0 |
| 20260504225006 | 75 | 360 | 2.6 | 7.0 | 0.00 | 0.00 | 0.00 | 33 | 1014.1 |
| 20260504224519 | 75 | 225 | 0.0 | 9.6 | 0.00 | 0.00 | 0.00 | 34 | 1014.0 |
| 20260504224007 | 76 | 160 | 2.6 | 9.6 | 0.00 | 0.00 | 0.00 | 32 | 1014.0 |
| 20260504223508 | 76 | 151 | 1.7 | 7.0 | 0.00 | 0.00 | 0.00 | 31 | 1014.1 |
| 20260504223023 | 77 | 223 | 0.9 | 8.7 | 0.00 | 0.00 | 0.00 | 31 | 1014.1 |
| 20260504222508 | 77 | 352 | 1.7 | 8.7 | 0.00 | 0.00 | 0.00 | 31 | 1014.2 |
| 20260504222013 | 78 | 202 | 0.9 | 5.2 | 0.00 | 0.00 | 0.00 | 31 | 1014.1 |
| 20260504221524 | 78 | 163 | 1.7 | 5.2 | 0.00 | 0.00 | 0.00 | 30 | 1014.2 |
| 20260504221007 | 78 | 254 | 0.9 | 3.5 | 0.00 | 0.00 | 0.00 | 30 | 1014.2 |
| 20260504220506 | 77 | 211 | 1.7 | 3.5 | 0.00 | 0.00 | 0.00 | 28 | 1014.2 |
| 20260504220011 | 78 | 216 | 0.9 | 4.3 | 0.00 | 0.00 | 0.00 | 27 | 1014.2 |
| 20260504215505 | 77 | 235 | 1.7 | 4.3 | 0.00 | 0.00 | 0.00 | 26 | 1014.2 |
| 20260504215007 | 78 | 232 | 1.7 | 4.3 | 0.00 | 0.00 | 0.00 | 25 | 1014.2 |
| 20260504214514 | 78 | 163 | 0.9 | 3.5 | 0.00 | 0.00 | 0.00 | 28 | 1014.1 |